User: anonymous   Login
Location: Unspecified
(0.0000°N, 0.0000°E)
Time: 17:30:05
(UTC+00:00)
Language:

NLS 7.1/CANX 4 - Orbit

View from above orbital plane
View from above orbital plane
View from above satellite
View from above satellite

Ground track
Ground track

The orbit data is extracted from the following two-line orbital elements,

1 40055U 14034C   21336.98478047  .00000254  00000-0  45753-4 0  9997
2 40055  98.3295 122.8980 0012988 262.6030  97.3702 14.75138932399786
Epoch (UTC): 02 December 2021 23:38:05
Eccentricity: 0.0012988
inclination: 98.3295°
perigee height: 635 km
apogee height: 654 km
right ascension of ascending node: 122.8980°
argument of perigee: 262.6030°
revolutions per day: 14.75138932
mean anomaly at epoch: 97.3702°
orbit number at epoch: 39978

The dashed part of the orbit path shows where the satellite is in the earth's shadow,  

DLR